This is the latest recevied weather packets stored in our database for station/object DG8AAC-L2. If no packets are shown the sender has not sent any weather packets the latest 10 day(s).
| Time | Temp. | Humidity | Pressure | Rain* | Wind** | Luminosity | Snow |
|---|---|---|---|---|---|---|---|
| 1777456409 | 13.33° C | 28% | 1031.9 hPa | - | - | - | - |
| 1777454609 | 12.78° C | 28% | 1032 hPa | - | - | - | - |
| 1777452808 | 12.22° C | 29% | 1032.1 hPa | - | - | - | - |
| 1777451008 | 12.22° C | 32% | 1032 hPa | - | - | - | - |
| 1777449208 | 11.11° C | 32% | 1031.9 hPa | - | - | - | - |
| 1777447408 | 10° C | 33% | 1031.8 hPa | - | - | - | - |
| 1777445608 | 9.44° C | 33% | 1031.4 hPa | - | - | - | - |
| 1777443808 | 10° C | 33% | 1031.4 hPa | - | - | - | - |
| 1777442011 | 8.89° C | 34% | 1031 hPa | - | - | - | - |
| 1777440211 | 5.56° C | 39% | 1030.8 hPa | - | - | - | - |
| 1777438411 | 5.56° C | 38% | 1030.3 hPa | - | - | - | - |
| 1777436611 | 5.56° C | 38% | 1030.3 hPa | - | - | - | - |
| 1777434811 | 5.56° C | 38% | 1030.1 hPa | - | - | - | - |
| 1777433011 | 6.11° C | 37% | 1030 hPa | - | - | - | - |
| 1777431211 | 6.67° C | 37% | 1030 hPa | - | - | - | - |
| 1777429410 | 7.78° C | 37% | 1029.8 hPa | - | - | - | - |
| 1777427610 | 7.78° C | 37% | 1029.8 hPa | - | - | - | - |
| 1777425810 | 7.78° C | 36% | 1029.7 hPa | - | - | - | - |
| 1777424010 | 8.33° C | 36% | 1029.6 hPa | - | - | - | - |
| 1777422210 | 8.89° C | 36% | 1029.6 hPa | - | - | - | - |
| 1777420410 | 9.44° C | 36% | 1029.6 hPa | - | - | - | - |
| 1777418610 | 9.44° C | 35% | 1029.5 hPa | - | - | - | - |
| 1777416810 | 10° C | 35% | 1029.3 hPa | - | - | - | - |
| 1777415010 | 10.56° C | 34% | 1029 hPa | - | - | - | - |
| 1777413210 | 11.11° C | 34% | 1028.8 hPa | - | - | - | - |
* Rain since midnight (hover to see other rain measurements)
** Current wind speed in m/s (hover to see current wind gust speed)